map of MFM home
Great Circle Mapper logo
MFM - Airport
Location
City:  Macau, Taipa Island, Macau
Name:Macau International Airport
ICAO / IATA:VMMC / MFM

Details
Type:Airport (Aerodrome, Airfield)
Use:Public/Civil, International (customs port of entry)
Latitude:2208'58"N (22.149556)
Longitude:11335'30"E (113.591558)
Datum:WGS 1984
Elevation:20 ft (6 m)
Runways:1
Longest:10544 × 148 ft (3214 × 45 m), paved

Time
Time Zone:UTC+8
Local Time:

Weather
METAR:VMMC 020800Z 19012KT 9999 FEW015 32/26 Q0998 NOSIG
TAF:VMMC 020500Z 0206/0312 17008KT 9999 FEW015

Related Locations
Nearby:
Farthest:SASQ: 12395 mi / 19947 km
La Quiaca, AR

Find:

   beyond  
but within

Other Information
Maps:
NOTAMs:
Links:
Sources:

  
flag of Macau   

Sectional Chart

Flight Planning
at skyvector.com

Satellite Image

Google Maps Satellite View

 

Copyright © 2004-2014 Karl L. Swartz. All rights reserved.
The Great Circle Mapper name and logo are trademarks of the Great Circle Mapper.
All other trademarks mentioned herein belong to their respective owners.
Please see credits for attibutions and further copyright information.

  Follow gcmap on Facebook Follow gcmap on Twitter

hCard Microformat

Geo Microformat